Date String (YYYY-MM-DD hh:mm:ss) UTC,Instrument flags,Ambient pressure (hPa),Sample flow (lpm),Bypass flow (lpm),Sample temperature (°C),Ambient temperature (°C),ASC tube jacket temperature (°C),LED temperature (°C),Box temperature (°C),Sample RH (%),Span deviation,Mass concentration (μg/m³),Mass concentration (μg/m³),Mass concentration (μg/m³)
DateTimeUTC,F1_M11,P_M11,Q1_M11,Q2_M11,T1_M11,T2_M11,T3_M11,T4_M11,T5_M11,U1_M11,ZSPAN_M11,X0_M11,X2_M11,X1_M11
2022-08-14 07:00:00,,0829.1,5.00,0.00,29.5,28.3,00.0,38.2,31.4,29.3,0000.0,0005.52,0003.61,0003.25
2022-08-14 07:01:00,,0829.1,5.00,0.00,29.5,28.4,00.0,38.2,31.4,29.8,0000.0,0005.35,0003.60,0003.24
2022-08-14 07:02:00,,0829.1,5.00,0.00,29.5,28.5,00.0,38.3,31.4,31.3,0000.0,0005.38,0003.60,0003.24
2022-08-14 07:03:00,,0829.0,4.99,0.00,29.5,28.6,00.0,38.3,31.5,32.3,0000.0,0005.54,0003.63,0003.26
2022-08-14 07:04:00,,0829.1,5.00,0.00,29.6,28.6,00.0,38.3,31.5,31.5,0000.0,0005.68,0003.63,0003.27
2022-08-14 07:05:00,,0829.1,5.00,0.00,29.6,28.7,00.0,38.3,31.5,31.1,0000.0,0005.80,0003.65,0003.28
2022-08-14 07:06:00,,0829.1,5.01,0.00,29.6,28.7,00.0,38.3,31.5,30.2,0000.0,0005.78,0003.66,0003.29
2022-08-14 07:07:00,,0829.0,5.00,0.00,29.6,28.8,00.0,38.3,31.6,29.3,0000.0,0006.02,0003.66,0003.30
2022-08-14 07:08:00,,0829.1,5.00,0.00,29.7,28.8,00.0,38.4,31.6,29.3,0000.0,0006.35,0003.70,0003.30
2022-08-14 07:09:00,,0829.0,5.00,0.00,29.7,28.9,00.0,38.4,31.6,28.7,0000.0,0006.50,0003.74,0003.30
2022-08-14 07:10:00,,0829.1,5.01,0.00,29.7,28.7,00.0,38.4,31.6,29.2,0000.0,0006.53,0003.75,0003.30
2022-08-14 07:11:00,,0829.1,4.99,0.00,29.7,28.0,00.0,38.3,31.4,28.9,0000.0,0006.73,0003.79,0003.31
2022-08-14 07:12:00,,0829.1,5.01,0.00,29.6,27.6,00.0,38.3,31.3,28.7,0000.0,0006.90,0003.81,0003.31
2022-08-14 07:13:00,,0829.1,5.01,0.00,29.5,27.5,00.0,38.3,31.2,29.2,0000.0,0007.20,0003.84,0003.31
2022-08-14 07:14:00,,0829.1,4.99,0.00,29.5,27.6,00.0,38.3,31.2,29.6,0000.0,0006.95,0003.79,0003.30
2022-08-14 07:15:00,,0829.1,5.00,0.00,29.5,27.7,00.0,38.3,31.2,29.6,0000.0,0006.68,0003.77,0003.29
2022-08-14 07:16:00,,0829.1,4.99,0.00,29.5,27.8,00.0,38.3,31.3,31.1,0000.0,0006.66,0003.78,0003.29
2022-08-14 07:17:00,,0829.1,5.01,0.00,29.5,28.0,00.0,38.3,31.3,32.7,0000.0,0006.72,0003.79,0003.31
2022-08-14 07:18:00,,0829.1,4.99,0.00,29.5,28.1,00.0,38.3,31.3,34.4,0000.0,0006.51,0003.80,0003.34
2022-08-14 07:19:00,,0829.1,5.00,0.00,29.5,28.2,00.0,38.3,31.4,34.0,0000.0,0006.25,0003.82,0003.39
2022-08-14 07:20:00,,0829.1,5.00,0.00,29.5,28.3,00.0,38.3,31.4,33.8,0000.0,0006.21,0003.84,0003.44
2022-08-14 07:21:00,,0829.1,5.01,0.00,29.5,28.4,00.0,38.3,31.4,33.8,0000.0,0006.37,0003.89,0003.48
2022-08-14 07:22:00,,0829.0,5.00,0.00,29.5,28.5,00.0,38.3,31.5,33.8,0000.0,0006.41,0003.93,0003.53
2022-08-14 07:23:00,,0829.0,5.00,0.00,29.6,28.6,00.0,38.3,31.5,34.7,0000.0,0006.51,0003.99,0003.60
2022-08-14 07:24:00,,0829.0,5.00,0.00,29.6,28.6,00.0,38.3,31.5,34.5,0000.0,0006.47,0004.06,0003.67
2022-08-14 07:25:00,,0829.0,5.00,0.00,29.6,28.7,00.0,38.3,31.6,34.8,0000.0,0007.39,0004.19,0003.74
2022-08-14 07:26:00,,0829.1,5.00,0.00,29.6,28.8,00.0,38.4,31.6,34.7,0000.0,0008.08,0004.28,0003.80
2022-08-14 07:27:00,,0829.0,5.01,0.00,29.7,28.8,00.0,38.4,31.6,35.2,0000.0,0008.56,0004.37,0003.87
2022-08-14 07:28:00,,0829.1,4.99,0.00,29.9,28.9,00.0,38.4,31.8,34.6,0000.0,0008.60,0004.42,0003.91
2022-08-14 07:29:00,,0829.1,5.01,0.00,30.0,28.9,00.0,38.4,31.9,33.9,0000.0,0009.09,0004.46,0003.93
2022-08-14 07:30:00,,0829.1,4.99,0.00,30.2,28.9,00.0,38.5,31.9,34.3,0000.0,0009.50,0004.53,0003.95
2022-08-14 07:31:00,,0829.0,5.00,0.00,30.2,28.6,00.0,38.5,31.7,34.9,0000.0,0009.79,0004.59,0003.97
2022-08-14 07:32:00,,0829.0,5.01,0.00,30.2,27.9,00.0,38.5,31.5,34.4,0000.0,0009.76,0004.60,0004.00
2022-08-14 07:33:00,,0829.1,5.00,0.00,30.2,27.6,00.0,38.5,31.5,33.3,0000.0,0009.93,0004.62,0004.02
2022-08-14 07:34:00,,0829.1,5.00,0.00,30.2,27.6,00.0,38.5,31.4,33.4,0000.0,0010.04,0004.63,0004.03
2022-08-14 07:35:00,,0829.1,5.00,0.00,30.1,27.7,00.0,38.5,31.4,34.3,0000.0,0010.15,0004.66,0004.03
2022-08-14 07:36:00,,0829.0,5.00,0.00,30.1,27.8,00.0,38.5,31.4,34.8,0000.0,0009.74,0004.67,0004.05
2022-08-14 07:37:00,,0829.0,5.00,0.00,30.1,27.9,00.0,38.6,31.5,34.7,0000.0,0009.27,0004.69,0004.07
2022-08-14 07:38:00,,0829.0,5.01,0.00,30.1,28.1,00.0,38.6,31.5,34.3,0000.0,0008.97,0004.71,0004.08
2022-08-14 07:39:00,,0829.0,5.00,0.00,30.1,28.2,00.0,38.6,31.5,34.0,0000.0,0009.23,0004.74,0004.10
2022-08-14 07:40:00,,0829.1,5.01,0.00,30.1,28.3,00.0,38.6,31.5,34.3,0000.0,0009.32,0004.75,0004.12
2022-08-14 07:41:00,,0829.1,4.99,0.00,30.1,28.4,00.0,38.6,31.6,34.0,0000.0,0009.49,0004.77,0004.15
2022-08-14 07:42:00,,0829.1,4.99,0.00,30.1,28.5,00.0,38.6,31.6,34.3,0000.0,0009.52,0004.74,0004.16
2022-08-14 07:43:00,,0829.1,5.01,0.00,30.1,28.6,00.0,38.7,31.7,34.6,0000.0,0009.67,0004.77,0004.17
2022-08-14 07:44:00,,0829.1,5.00,0.00,30.1,28.7,00.0,38.7,31.7,34.8,0000.0,0009.80,0004.81,0004.18
2022-08-14 07:45:00,,0829.1,5.00,0.00,30.1,28.7,00.0,38.7,31.7,34.5,0000.0,0009.96,0004.86,0004.20
2022-08-14 07:46:00,,0829.1,5.01,0.00,30.2,28.8,00.0,38.7,31.7,34.3,0000.0,0010.19,0004.90,0004.22
2022-08-14 07:47:00,,0829.1,5.00,0.00,30.2,28.8,00.0,38.7,31.8,33.4,0000.0,0010.68,0004.91,0004.22
2022-08-14 07:48:00,,0829.1,5.00,0.00,30.2,28.9,00.0,38.7,31.8,33.5,0000.0,0011.27,0004.95,0004.21
2022-08-14 07:49:00,,0829.1,5.00,0.00,30.2,29.0,00.0,38.8,31.9,33.4,0000.0,0011.30,0004.95,0004.21
2022-08-14 07:50:00,,0829.0,5.01,0.00,30.2,28.7,00.0,38.8,31.8,33.9,0000.0,0011.15,0004.97,0004.23
2022-08-14 07:51:00,,0829.0,5.00,0.00,30.2,28.0,00.0,38.7,31.6,34.1,0000.0,0010.77,0004.99,0004.23
2022-08-14 07:52:00,,0829.1,5.00,0.00,30.1,27.7,00.0,38.7,31.5,34.0,0000.0,0011.23,0004.97,0004.23
2022-08-14 07:53:00,,0829.1,4.99,0.00,30.0,27.6,00.0,38.7,31.3,34.1,0000.0,0011.41,0005.00,0004.24
2022-08-14 07:54:00,,0829.1,5.00,0.00,29.9,27.6,00.0,38.7,31.4,33.9,0000.0,0011.84,0004.96,0004.24
2022-08-14 07:55:00,,0829.0,5.01,0.00,29.9,27.8,00.0,38.7,31.4,35.0,0000.0,0011.57,0004.95,0004.25
2022-08-14 07:56:00,,0829.0,5.01,0.00,30.1,27.9,00.0,38.7,31.5,34.9,0000.0,0011.41,0004.92,0004.24
2022-08-14 07:57:00,,0829.1,4.99,0.00,30.2,28.0,00.0,38.6,31.6,33.7,0000.0,0011.21,0004.90,0004.23
2022-08-14 07:58:00,,0829.1,5.01,0.00,30.3,28.2,00.0,38.7,31.7,33.7,0000.0,0010.70,0004.88,0004.21
2022-08-14 07:59:00,,0829.1,5.00,0.00,30.4,28.3,00.0,38.7,31.7,33.3,0000.0,0010.19,0004.85,0004.20
